Overview Statistics Trail Chart Weather Telemetry Raw packets
 

This is the latest recevied weather packets stored in our database for station/object W0WFX-2. If no packets are shown the sender has not sent any weather packets the latest 10 day(s).

<< 72 73 74 75 76 77 78 >>
Time Temp. Humidity Pressure Rain* Wind** Luminosity Snow
1788129480 36.67° C 32% 1010.6 hPa 0 mm - 58 W/m² -
1788129176 37.22° C 32% 1010.7 hPa 0 mm - 65 W/m² -
1788128875 37.22° C 32% 1010.7 hPa 0 mm - 118 W/m² -
1788128571 37.78° C 31% 1010.6 hPa 0 mm - 284 W/m² -
1788128266 37.78° C 31% 1010.9 hPa 0 mm - 310 W/m² -
1788127964 37.78° C 30% 1010.6 hPa 0 mm - 339 W/m² -
1788127664 37.78° C 32% 1010.5 hPa 0 mm - 357 W/m² -
1788127363 37.78° C 31% 1010.7 hPa 0 mm - 371 W/m² -
1788127062 37.78° C 30% 1010.7 hPa 0 mm - 386 W/m² -
1788126756 37.78° C 33% 1010.8 hPa 0 mm - 402 W/m² -
1788126452 37.78° C 32% 1010.8 hPa 0 mm - 417 W/m² -
1788126152 37.78° C 32% 1011 hPa 0 mm - 432 W/m² -
1788125850 37.78° C 32% 1011 hPa 0 mm - 449 W/m² -
1788125546 37.78° C 34% 1011 hPa 0 mm - 459 W/m² -
1788125242 37.78° C 33% 1011.2 hPa 0 mm - 419 W/m² -
1788124938 37.78° C 33% 1011 hPa 0 mm - 343 W/m² -
1788124638 37.78° C 33% 1011.1 hPa 0 mm - 320 W/m² -
1788124337 37.78° C 34% 1011.1 hPa 0 mm - 299 W/m² -
1788124048 37.78° C 35% 1011.2 hPa 0 mm - 271 W/m² -
1788123732 37.78° C 34% 1011.3 hPa 0 mm - 236 W/m² -
1788123429 37.78° C 35% 1011.2 hPa 0 mm - 206 W/m² -
1788123125 37.78° C 35% 1011.3 hPa 0 mm - 182 W/m² -
1788122824 37.78° C 36% 1011.3 hPa 0 mm - 162 W/m² -
1788122523 37.78° C 35% 1011.2 hPa 0 mm - 134 W/m² -
1788122220 37.78° C 36% 1011.4 hPa 0 mm - 119 W/m² -

* Rain latest hour (hover to see other rain measurements)
** Current wind speed in m/s (hover to see current wind gust speed)